Location: Township of Marena
(38.1747°N, 99.6798°W)
Time: 01:24:12
(UTC+00:00)

Cosmos 1745 Rocket - Pass Details

Date: 26 October 2020
Orbit: 953 x 997 km, 83.0° (Epoch: 27 November)

Event Time Altitude Azimuth Distance (km) Brightness Sun altitude
Rises 01:12:01 0° 358° (N) 3,689 7.0 -17.3°
Reaches altitude 10° 01:14:36 10° 2° (N) 2,743 6.3 -17.9°
Maximum altitude 01:20:46 55° 80° (E) 1,178 4.0 -19.1°
Drops below altitude 10° 01:26:57 10° 157° (SSE) 2,750 6.1 -20.3°
Sets 01:29:32 0° 162° (SSE) 3,698 6.9 -20.8°
